Location: Pasadena-CA
(34.1440°N, 118.1100°W)
Time: 17:26:44
(UTC-07:00)

BlueWalker 3 - Pass Details

Date: 22 May 2025
Orbit: 460 x 472 km, 53.2° (Epoch: 19 June)

Event Time Altitude Azimuth Distance (km) Brightness Sun altitude
Rises 21:56:36 0° 322° (NW) 2,491 7.0 -21.5°
Reaches altitude 10° 21:58:51 10° 330° (NNW) 1,616 5.6 -21.9°
Enters shadow 22:02:06 38° 33° (NNE) 717 2.7 -22.3°
